Simultaneous Nadir Overpasses (SNOs) Predictions

Prediction of SNOs between NOAA-15 and METOP-C Satellite Orbit:

Table of predicted SNOs for the next 14.0 days since TLE Epoch: 4/6/2024
Index Date (NOAA-15) Time (NOAA-15) Lat,Lon (NOAA-15) SZA (NOAA-15 ) Date (METOP-C) Time (METOP-C) Lat,Lon (METOP-C) SZA (METOP-C ) Distance(km) Time Diff (sec)
1 04/06/2024 03:38:14 81.09, 163.20 76.28 04/06/2024 03:38:11 81.08, 163.33 76.29 2.38 3
2 04/06/2024 04:28:40 -81.09, -29.47 103.74 04/06/2024 04:28:52 -81.08, -29.31 103.73 2.91 12
3 04/06/2024 05:19:14 81.09, 138.01 76.26 04/06/2024 05:19:32 81.09, 138.18 76.29 3.04 18
4 04/06/2024 06:09:40 -81.09, -54.67 103.76 04/06/2024 06:10:14 -81.07, -54.83 103.77 3.33 34
5 04/06/2024 07:00:14 81.08, 112.81 76.24 04/06/2024 07:00:54 81.08, 112.66 76.24 2.56 40
6 04/06/2024 07:50:40 -81.09, -79.86 103.78 04/06/2024 07:51:35 -81.08, -79.98 103.78 2.15 55
7 04/06/2024 08:41:14 81.08, 87.61 76.22 04/06/2024 08:42:15 81.09, 87.51 76.24 1.83 61



Historial Predications of SNOs between NOAA-15 and METOP-C
